Location: Firnhaberau
(48.4049°N, 10.8963°E)
Time: 08:32:13
(UTC+00:00)

Tiangong - Pass Details

Date: 26 June 2021
Orbit: 374 x 386 km, 41.5° (Epoch: 28 July)

Event Time Altitude Azimuth Distance (km) Brightness Sun altitude
Exits shadow 01:32:51 20° 186° (S) 927 2.4 -12.3°
Maximum altitude 01:33:19 21° 173° (S) 906 2.5 -12.2°
Drops below altitude 10° 01:35:47 10° 121° (ESE) 1,389 3.9 -12.0°
Sets 01:38:09 0° 105° (ESE) 2,245 5.2 -11.8°
